{"data":{"norad_id":61702,"intl_designator":"2024-195R","name":"STARLINK-32299","alt_names":[],"object_type":"PAYLOAD","status":"ACTIVE","operator":null,"country":"US","launch_date":"2024-10-30","launch_site_code":"AFWTR","launch_vehicle":null,"mission":null,"orbit_class":"UNKNOWN","rcs_meters":null,"size_class":null,"mass_kg":null,"dimensions":null,"purposes":["comms"],"wikipedia_slug":null,"has_3d_model":false,"image_url":null,"decayed_at":null,"tle_current":{"epoch":"2026-09-20T21:39:38.654208Z","epoch_age_seconds":153454,"freshness":"FRESH","line1":"1 61702U 24195R   26263.90253072  .00004469  00000+0  14333-3 0  9993","line2":"2 61702  53.1598 324.0632 0001557  70.6787 289.4384 15.34399340107201","mean_motion":15.3439934,"eccentricity":0.0001557,"inclination_deg":53.1598,"raan_deg":324.0632,"arg_perigee_deg":70.6787,"mean_anomaly_deg":289.4384,"bstar":0.00014333,"rev_number":10720,"period_min":93.84779844861,"perigee_km":461.64008273607,"apogee_km":463.77032099773,"semimajor_km":6840.8422018669,"source":"CELESTRAK","updated_at":"2026-09-22T09:00:49.408798Z"}}}